Theta_e
303 303 303 304 304 305 305 303 301 296 297 302 300 307 305 305 306 308 306 306 307 307 308 312 312 311 311 313 314 320 324 328 330 329 331 330 330 332
301 302 302 303 304 305 305 304 304 300 295 300 301 303 305 304 306 306 304 306 306 306 307 310 310 309 309 311 311 314 320 325 327 326 327 327 329 328
300 300 301 303 304 304 305 303 301 300 296 299 301 304 303 303 304 305 305 304 304 305 307 308 310 308 308 309 309 310 314 318 324 324 324 325 325 327
298 299 300 302 305 305 304 302 301 301 298 297 300 301 302 304 304 303 303 304 304 304 306 306 308 307 306 306 307 308 310 310 315 320 322 323 324 324
297 298 299 301 303 303 303 302 302 302 301 298 298 301 302 303 303 304 303 303 303 305 305 305 305 305 305 305 305 307 307 305 306 311 316 319 320 321
297 298 298 298 300 302 302 301 300 300 299 298 298 298 300 302 301 299 298 301 301 304 304 303 304 304 303 303 304 305 307 305 304 306 309 311 313 315
296 296 297 299 302 303 300 299 299 298 298 297 296 297 297 297 296 298 297 299 300 303 302 302 303 303 302 302 303 304 306 305 304 304 306 306 308 310
293 294 294 298 298 301 299 299 300 298 297 296 295 294 295 296 297 296 296 295 294 302 299 298 302 300 301 302 302 303 304 303 303 304 305 307 305 307
292 291 292 295 296 297 296 297 298 298 299 297 294 294 293 295 295 295 295 295 295 298 298 295 301 299 302 302 302 302 302 301 302 303 303 303 306 304
291 291 291 293 295 295 294 295 296 297 297 297 295 295 296 297 296 296 296 296 297 298 299 293 298 298 302 302 301 300 301 301 301 302 303 303 301 301
290 291 292 293 293 293 293 293 294 295 298 297 297 296 296 295 296 296 295 294 293 294 298 295 297 298 299 303 305 305 303 302 300 302 304 303 302 301
290 291 291 292 292 292 292 292 292 293 294 294 296 296 296 296 297 296 295 293 294 293 297 295 297 298 296 303 303 305 305 304 302 301 301 302 303 312
289 289 291 291 292 291 292 293 292 293 293 294 293 293 294 294 295 295 295 295 293 294 299 298 297 298 298 298 301 303 303 305 309 308 301 300 299 304
290 291 292 291 291 291 292 292 292 293 293 292 291 290 291 291 292 293 295 296 298 298 301 301 298 298 296 296 296 301 303 305 307 306 309 303 300 299
291 291 291 290 290 291 291 292 292 291 291 289 288 288 290 291 292 293 295 297 299 301 302 302 299 299 298 296 296 299 299 303 306 305 307 308 309 308
291 290 291 290 290 290 290 290 290 291 290 288 287 288 289 289 289 291 291 293 295 298 301 302 302 300 298 298 299 298 301 299 304 304 307 309 312 310
290 290 289 288 287 287 287 288 289 289 287 287 286 286 287 288 288 290 290 291 294 295 296 299 301 302 301 301 298 300 301 300 301 302 304 304 306 304
288 286 286 287 286 286 285 285 286 286 285 285 285 285 285 286 286 288 290 291 292 296 296 298 298 298 297 297 297 297 299 299 301 301 303 301 302 301
287 285 285 285 285 285 285 284 283 284 285 284 284 284 285 285 286 287 289 291 292 296 297 298 298 297 294 294 294 295 293 296 297 299 301 300 299 300
285 284 283 284 284 283 283 282 282 283 283 283 283 284 284 285 286 287 289 291 292 295 297 298 298 299 296 296 295 293 292 294 294 296 297 299 300 296
283 283 283 283 282 282 282 282 282 282 282 282 282 283 284 285 286 288 290 290 291 295 297 298 300 292 301 298 294 292 293 294 295 293 294 295 297 300
283 282 282 282 282 282 282 282 281 281 281 281 282 283 284 285 286 288 292 295 300 299 300 301 302 302 301 298 293 292 292 293 295 296 296 294 293 292
282 282 282 282 282 282 282 281 281 281 281 281 281 283 284 285 288 290 293 300 301 301 300 299 298 297 294 293 292 291 290 291 292 292 293 295 296 296
Wind_Speed
3 3 3 3 3 3 3 3 5 7 8 4 9 8 9 8 11 10 11 17 19 18 18 15 16 17 19 20 21 16 15 13 7 7 7 7 9 11
4 4 3 3 3 3 3 5 5 6 7 9 9 11 10 9 11 11 12 17 16 18 18 16 15 15 17 18 20 21 15 12 10 8 8 9 7 7
4 5 5 5 4 3 5 4 4 6 8 10 8 10 12 11 11 9 11 10 8 16 17 17 12 11 15 17 18 19 19 15 9 12 9 8 6 5
6 7 6 5 7 5 5 5 4 5 5 13 12 9 11 11 11 10 9 9 9 13 16 18 14 11 14 15 16 16 15 16 9 5 10 11 9 8
7 6 7 8 8 7 6 6 7 7 9 9 11 9 9 9 10 10 9 9 7 14 14 15 13 12 16 15 14 13 10 11 13 7 10 9 10 8
6 6 8 9 10 7 6 7 8 10 10 9 10 11 11 10 8 9 10 8 9 10 11 10 12 14 17 16 15 14 8 8 11 7 8 12 8 7
6 9 9 13 13 11 6 8 10 9 8 9 10 10 10 8 8 7 9 9 9 9 6 5 9 9 9 12 12 13 10 9 11 11 7 8 12 11
9 9 10 11 11 12 15 16 12 9 11 8 10 10 12 9 9 8 8 7 5 2 7 9 8 9 9 8 11 12 11 11 10 10 6 10 10 12
9 9 9 8 11 10 14 17 14 13 13 11 12 12 14 11 11 12 9 8 8 7 7 8 6 9 8 8 12 12 12 11 10 9 7 5 12 12
10 9 8 9 9 12 14 13 12 12 10 9 11 13 13 13 12 11 11 9 7 7 5 4 5 8 7 6 9 10 11 10 8 8 10 6 8 10
9 8 8 9 11 15 11 13 14 13 10 16 18 21 20 19 15 8 6 5 5 3 2 2 4 7 4 3 5 11 8 7 6 9 2 0 4 7
9 8 11 11 14 16 10 10 12 13 15 16 13 12 11 11 13 7 6 6 5 4 0 2 2 5 4 1 4 6 7 7 5 7 5 4 6 3
8 7 7 14 15 14 12 7 10 15 17 12 11 9 8 8 6 6 7 6 6 5 3 1 2 2 2 3 4 3 6 6 3 4 5 8 9 4
9 8 9 16 16 15 11 14 15 15 9 9 9 8 9 8 8 9 10 8 7 9 6 5 2 1 2 2 2 3 5 5 2 4 4 4 7 2
8 12 15 15 15 11 14 15 14 8 8 8 9 9 8 8 11 9 9 9 8 6 5 6 4 4 3 3 3 2 4 3 2 3 3 2 0 0
12 8 11 12 12 12 11 10 8 8 9 8 9 8 8 8 8 7 8 7 6 2 2 4 4 5 3 4 4 6 3 4 4 4 5 3 2 2
11 8 8 9 9 9 9 9 9 8 9 8 9 9 9 9 8 7 6 6 4 2 1 1 2 2 1 4 3 4 5 5 4 4 3 4 1 2
8 8 8 8 9 10 11 11 9 12 10 10 9 9 9 9 10 9 6 5 5 3 2 1 0 1 2 4 6 3 4 3 4 4 3 2 0 1
7 9 8 9 10 10 9 9 10 10 11 9 10 10 10 9 10 9 7 6 5 3 1 1 1 1 1 1 3 9 3 3 3 2 1 1 1 1
9 9 10 9 10 10 10 10 10 10 10 10 10 10 9 10 10 9 7 6 5 4 1 1 2 3 2 2 1 1 7 4 3 3 3 2 0 4
9 9 9 9 10 9 9 10 10 10 11 11 10 10 10 10 10 9 9 8 1 2 2 1 2 3 1 2 1 1 1 9 8 4 4 3 2 0
9 9 10 9 9 10 10 10 10 11 11 10 11 10 10 10 9 11 9 8 3 1 1 2 2 2 0 2 1 1 1 2 4 8 11 8 2 3
9 9 9 9 10 11 11 11 12 11 11 12 11 11 11 11 10 9 9 8 2 2 2 2 1 2 2 2 1 2 2 2 3 3 5 10 10 8
Wind_Direction
356 358 317 322 334 309 282 281 315 321 329 343 327 319 330 320 318 329 329 323 336 335 334 338 343 349 352 352 357 331 317 281 261 237 169 182 187 185
357 342 355 322 325 316 309 334 325 325 309 330 306 304 309 309 322 328 316 321 319 325 328 336 337 349 348 347 351 352 327 289 237 216 170 147 154 163
0 359 350 331 305 318 322 317 326 323 303 301 296 299 299 311 315 317 315 313 314 319 319 330 333 347 344 343 343 346 351 325 254 215 185 174 126 125
4 5 340 327 297 325 316 303 304 289 286 300 303 302 296 304 302 309 311 313 312 311 313 320 320 335 341 334 332 335 338 345 313 254 192 192 176 138
14 349 339 339 329 320 322 316 314 307 295 291 293 298 303 313 312 312 308 304 298 308 311 311 309 314 328 319 318 317 329 342 336 280 227 198 161 149
13 350 346 342 319 310 327 334 327 304 301 302 306 311 311 314 303 305 311 311 308 309 303 297 299 303 312 307 308 307 313 330 326 318 234 195 193 193
7 0 346 326 324 325 345 329 316 307 305 309 305 305 307 316 309 307 295 303 304 286 297 295 308 306 306 302 298 299 302 317 316 322 268 214 200 204
344 354 335 325 334 322 329 322 319 306 304 308 303 301 301 310 306 302 295 300 311 275 332 303 305 304 299 293 285 283 294 303 304 319 304 229 203 200
334 340 333 327 325 321 319 322 319 313 305 300 295 301 300 302 299 296 294 283 275 287 299 296 308 299 309 300 281 275 284 286 283 288 300 249 223 199
342 327 320 315 319 330 324 323 322 319 307 309 297 292 290 295 292 289 289 285 278 281 267 272 312 304 319 319 313 283 277 266 262 285 287 265 222 220
324 319 319 317 325 323 326 322 319 312 312 310 297 288 285 286 283 297 286 277 291 277 265 272 299 315 308 319 349 349 356 354 207 236 253 54 222 220
319 323 326 327 323 323 325 320 313 319 321 317 306 302 296 294 299 304 302 304 283 274 155 197 289 332 316 324 347 348 353 359 70 68 29 87 145 154
332 331 337 326 323 323 321 313 311 309 309 302 304 310 303 306 313 310 298 283 283 261 205 178 259 295 263 325 331 340 344 336 18 45 75 55 66 355
334 337 336 333 331 324 325 318 312 310 303 306 312 314 312 325 326 315 299 281 264 264 264 211 252 246 306 307 300 321 330 320 358 0 18 19 81 126
344 342 335 337 330 333 335 328 325 314 311 316 320 309 317 314 309 307 304 298 289 264 258 232 229 242 256 267 296 298 327 321 342 340 341 19 95 256
345 339 347 345 341 336 336 335 325 319 329 323 310 311 313 319 317 313 313 315 301 294 285 224 219 228 248 246 272 295 321 314 322 325 327 319 5 331
348 354 358 356 345 343 339 334 331 333 337 328 324 326 326 323 318 317 309 311 286 301 305 289 239 238 256 299 286 296 316 307 303 299 312 312 45 1
7 360 354 347 347 344 342 335 335 340 334 330 329 329 327 324 320 320 315 313 312 299 296 307 307 133 155 81 36 326 297 284 302 308 295 303 289 19
8 3 347 346 347 343 336 332 334 332 328 330 331 330 327 321 323 320 320 317 319 307 277 231 193 234 323 313 136 49 335 319 312 282 284 262 273 305
8 1 352 348 349 341 337 337 334 335 338 336 334 333 329 324 324 324 318 308 299 309 281 197 224 229 246 332 108 94 24 349 331 323 329 318 241 89
2 356 357 349 352 340 337 336 335 336 335 335 335 333 330 328 322 319 317 313 297 265 281 263 246 206 116 126 149 132 38 20 25 10 324 309 325 283
359 357 359 349 348 342 344 340 339 342 341 340 338 333 330 327 322 320 319 319 338 329 333 43 94 141 295 350 44 55 45 6 352 26 40 42 2 359
2 1 0 350 353 348 349 348 345 342 342 339 336 334 330 330 326 319 318 320 353 37 40 56 40 44 38 24 51 49 52 25 357 9 32 28 36 37